Time,TemperatureF,DewpointF,PressureIn,WindDirection,WindDirectionDegrees,WindSpeedMPH,WindSpeedGustMPH,Humidity,HourlyPrecipIn,Conditions,Clouds,dailyrainin,SolarRadiationWatts/m^2,SoftwareType,DateUTC
2013-07-29 00:01:00,59.0,55.4,29.61,West,271,0.0,0.0,88,0.00,,,0.00,0,WeatherCatV1.02B3,2013-07-29 07:01:00,
2013-07-29 00:06:00,59.1,55.2,29.61,West,271,0.0,0.0,87,0.00,,,0.00,0,WeatherCatV1.02B3,2013-07-29 07:06:00,
2013-07-29 00:11:00,59.2,55.3,29.61,West,271,0.0,0.0,87,0.00,,,0.00,0,WeatherCatV1.02B3,2013-07-29 07:11:00,
2013-07-29 00:16:00,59.3,55.4,29.61,West,271,0.0,0.0,87,0.00,,,0.00,0,WeatherCatV1.02B3,2013-07-29 07:16:00,
2013-07-29 00:21:00,59.4,55.5,29.61,West,271,0.0,0.0,87,0.00,,,0.00,0,WeatherCatV1.02B3,2013-07-29 07:21:00,
2013-07-29 00:26:00,59.5,55.6,29.61,West,271,0.0,0.0,87,0.00,,,0.00,0,WeatherCatV1.02B3,2013-07-29 07:26:00,
2013-07-29 00:31:00,59.6,55.7,29.61,West,271,0.0,0.0,87,0.00,,,0.00,0,WeatherCatV1.02B3,2013-07-29 07:31:00,
2013-07-29 00:36:00,59.7,55.8,29.61,West,271,0.0,0.0,87,0.00,,,0.00,0,WeatherCatV1.02B3,2013-07-29 07:36:00,
2013-07-29 00:41:00,59.9,56.0,29.61,West,271,0.0,0.0,87,0.00,,,0.00,0,WeatherCatV1.02B3,2013-07-29 07:41:00,
2013-07-29 00:46:00,60.0,56.1,29.61,West,271,0.0,0.0,87,0.00,,,0.00,0,WeatherCatV1.02B3,2013-07-29 07:46:00,
2013-07-29 00:51:00,60.1,56.2,29.61,West,271,0.0,0.0,87,0.00,,,0.00,0,WeatherCatV1.02B3,2013-07-29 07:51:00,
2013-07-29 00:56:00,60.2,56.3,29.61,West,271,0.0,0.0,87,0.00,,,0.00,0,WeatherCatV1.02B3,2013-07-29 07:56:00,
2013-07-29 01:01:00,60.2,56.3,29.61,West,271,0.0,0.0,87,0.00,,,0.00,0,WeatherCatV1.02B3,2013-07-29 08:01:00,
2013-07-29 01:06:00,60.2,56.3,29.61,West,271,0.0,0.0,87,0.00,,,0.00,0,WeatherCatV1.02B3,2013-07-29 08:06:00,
2013-07-29 01:11:00,60.2,56.3,29.61,West,271,0.0,0.0,87,0.00,,,0.00,0,WeatherCatV1.02B3,2013-07-29 08:11:00,
2013-07-29 01:16:00,60.2,56.6,29.61,West,271,0.0,0.0,88,0.00,,,0.00,0,WeatherCatV1.02B3,2013-07-29 08:16:00,
2013-07-29 01:21:00,60.1,56.5,29.61,West,271,0.0,0.0,88,0.00,,,0.00,0,WeatherCatV1.02B3,2013-07-29 08:21:00,
2013-07-29 01:26:00,60.3,56.4,29.61,SW,235,1.0,2.0,87,0.00,,,0.00,0,WeatherCatV1.02B3,2013-07-29 08:26:00,
2013-07-29 01:31:00,60.2,56.3,29.61,NW,308,1.0,2.0,87,0.00,,,0.00,0,WeatherCatV1.02B3,2013-07-29 08:31:00,
2013-07-29 01:36:00,60.0,56.4,29.61,NW,308,0.0,1.0,88,0.00,,,0.00,0,WeatherCatV1.02B3,2013-07-29 08:36:00,
2013-07-29 01:41:00,60.0,56.4,29.61,NW,308,0.0,2.0,88,0.00,,,0.00,0,WeatherCatV1.02B3,2013-07-29 08:41:00,
2013-07-29 01:46:00,60.0,56.4,29.61,NW,308,0.0,1.0,88,0.00,,,0.00,0,WeatherCatV1.02B3,2013-07-29 08:46:00,
2013-07-29 01:51:00,60.0,56.4,29.61,NW,308,0.0,0.0,88,0.00,,,0.00,0,WeatherCatV1.02B3,2013-07-29 08:51:00,
2013-07-29 01:56:00,60.0,56.4,29.61,NW,308,0.0,0.0,88,0.00,,,0.00,0,WeatherCatV1.02B3,2013-07-29 08:56:00,
2013-07-29 02:01:00,60.1,56.5,29.61,NW,308,0.0,0.0,88,0.00,,,0.00,0,WeatherCatV1.02B3,2013-07-29 09:01:00,
2013-07-29 02:06:00,60.3,56.4,29.61,NW,308,0.0,0.0,87,0.00,,,0.00,0,WeatherCatV1.02B3,2013-07-29 09:06:00,
2013-07-29 02:11:00,60.4,56.5,29.61,NNE,17,0.0,0.0,87,0.00,,,0.00,0,WeatherCatV1.02B3,2013-07-29 09:11:00,
2013-07-29 02:16:00,60.4,56.5,29.61,East,81,1.0,2.0,87,0.00,,,0.00,0,WeatherCatV1.02B3,2013-07-29 09:16:00,
2013-07-29 02:21:00,60.2,56.3,29.61,NE,38,0.0,1.0,87,0.00,,,0.00,0,WeatherCatV1.02B3,2013-07-29 09:21:00,
2013-07-29 02:26:00,60.1,56.2,29.61,NE,38,0.0,0.0,87,0.00,,,0.00,0,WeatherCatV1.02B3,2013-07-29 09:26:00,
2013-07-29 02:44:00,60.3,56.4,29.61,NE,38,0.0,1.0,87,0.00,,,0.00,0,WeatherCatV1.02B3,2013-07-29 09:44:00,
2013-07-29 02:50:00,60.3,56.4,29.61,NE,38,0.0,0.0,87,0.00,,,0.00,0,WeatherCatV1.02B3,2013-07-29 09:50:00,
2013-07-29 02:55:00,60.4,56.2,29.61,NE,38,0.0,1.0,86,0.00,,,0.00,0,WeatherCatV1.02B3,2013-07-29 09:55:00,
2013-07-29 03:00:00,60.4,56.5,29.61,NE,38,0.0,0.0,87,0.00,,,0.00,0,WeatherCatV1.02B3,2013-07-29 10:00:00,
2013-07-29 03:05:00,60.5,56.3,29.61,NE,38,0.0,1.0,86,0.00,,,0.00,0,WeatherCatV1.02B3,2013-07-29 10:05:00,
2013-07-29 03:10:00,60.3,56.1,29.61,NE,38,0.0,1.0,86,0.00,,,0.00,0,WeatherCatV1.02B3,2013-07-29 10:10:00,
2013-07-29 03:15:00,60.1,56.2,29.61,NNE,33,0.0,3.0,87,0.00,,,0.00,0,WeatherCatV1.02B3,2013-07-29 10:15:00,
2013-07-29 03:20:00,60.0,56.1,29.61,NNE,27,0.0,0.0,87,0.00,,,0.00,0,WeatherCatV1.02B3,2013-07-29 10:20:00,
2013-07-29 03:30:00,59.9,56.0,29.61,NNW,327,0.0,2.0,87,0.00,,,0.00,0,WeatherCatV1.02B3,2013-07-29 10:30:00,
2013-07-29 03:35:00,59.9,56.3,29.61,WNW,300,0.0,1.0,88,0.00,,,0.00,0,WeatherCatV1.02B3,2013-07-29 10:35:00,
2013-07-29 03:40:00,59.7,56.1,29.61,WNW,298,0.0,0.0,88,0.00,,,0.00,0,WeatherCatV1.02B3,2013-07-29 10:40:00,
2013-07-29 03:45:00,59.6,56.4,29.61,WNW,290,1.0,2.0,89,0.00,,,0.00,0,WeatherCatV1.02B3,2013-07-29 10:45:00,
2013-07-29 03:50:00,59.5,56.3,29.61,West,275,1.0,3.0,89,0.00,,,0.00,0,WeatherCatV1.02B3,2013-07-29 10:50:00,
2013-07-29 03:55:00,59.4,56.2,29.61,West,273,0.0,2.0,89,0.00,,,0.00,0,WeatherCatV1.02B3,2013-07-29 10:55:00,
2013-07-29 04:00:00,59.4,56.2,29.61,West,275,2.0,2.0,89,0.00,,,0.00,0,WeatherCatV1.02B3,2013-07-29 11:00:00,
2013-07-29 04:05:00,59.3,56.1,29.61,West,281,1.0,2.0,89,0.00,,,0.00,0,WeatherCatV1.02B3,2013-07-29 11:05:00,
2013-07-29 04:10:00,59.2,56.3,29.61,West,281,0.0,2.0,90,0.00,,,0.00,0,WeatherCatV1.02B3,2013-07-29 11:10:00,
2013-07-29 04:15:00,59.2,56.3,29.61,WNW,282,2.0,3.0,90,0.00,,,0.00,0,WeatherCatV1.02B3,2013-07-29 11:15:00,
2013-07-29 04:20:00,59.2,56.3,29.61,West,279,0.0,2.0,90,0.00,,,0.00,0,WeatherCatV1.02B3,2013-07-29 11:20:00,
2013-07-29 04:25:00,59.1,56.2,29.61,West,276,1.0,3.0,90,0.00,,,0.00,0,WeatherCatV1.02B3,2013-07-29 11:25:00,
2013-07-29 04:30:00,59.1,56.2,29.61,West,268,0.0,2.0,90,0.00,,,0.00,0,WeatherCatV1.02B3,2013-07-29 11:30:00,
2013-07-29 04:35:00,59.1,56.2,29.61,West,268,1.0,1.0,90,0.00,,,0.00,0,WeatherCatV1.02B3,2013-07-29 11:35:00,
2013-07-29 04:40:00,59.1,56.2,29.61,West,276,2.0,3.0,90,0.00,,,0.00,0,WeatherCatV1.02B3,2013-07-29 11:40:00,
2013-07-29 04:45:00,59.0,56.1,29.61,West,276,0.0,1.0,90,0.00,,,0.00,0,WeatherCatV1.02B3,2013-07-29 11:45:00,
2013-07-29 04:50:00,59.0,56.4,29.61,West,276,0.0,0.0,91,0.00,,,0.00,0,WeatherCatV1.02B3,2013-07-29 11:50:00,
2013-07-29 04:55:00,59.0,56.4,29.61,West,276,0.0,0.0,91,0.00,,,0.00,0,WeatherCatV1.02B3,2013-07-29 11:55:00,
2013-07-29 05:00:00,59.1,56.5,29.61,West,276,0.0,1.0,91,0.00,,,0.00,0,WeatherCatV1.02B3,2013-07-29 12:00:00,
2013-07-29 05:05:00,59.1,56.5,29.61,West,276,0.0,0.0,91,0.00,,,0.00,0,WeatherCatV1.02B3,2013-07-29 12:05:00,
2013-07-29 05:10:00,59.1,56.2,29.61,West,276,0.0,1.0,90,0.00,,,0.00,0,WeatherCatV1.02B3,2013-07-29 12:10:00,
2013-07-29 05:15:00,59.1,56.5,29.61,West,276,0.0,1.0,91,0.00,,,0.00,0,WeatherCatV1.02B3,2013-07-29 12:15:00,
2013-07-29 05:20:00,59.2,56.3,29.61,West,276,0.0,0.0,90,0.00,,,0.00,0,WeatherCatV1.02B3,2013-07-29 12:20:00,
2013-07-29 05:25:00,59.2,56.3,29.61,West,276,0.0,0.0,90,0.00,,,0.00,0,WeatherCatV1.02B3,2013-07-29 12:25:00,
2013-07-29 05:30:00,59.3,56.4,29.61,West,276,0.0,0.0,90,0.00,,,0.00,0,WeatherCatV1.02B3,2013-07-29 12:30:00,
2013-07-29 05:35:00,59.4,56.5,29.61,West,276,0.0,0.0,90,0.00,,,0.00,0,WeatherCatV1.02B3,2013-07-29 12:35:00,
2013-07-29 05:40:00,59.4,56.5,29.61,West,276,0.0,0.0,90,0.00,,,0.00,0,WeatherCatV1.02B3,2013-07-29 12:40:00,
2013-07-29 05:45:00,59.4,56.2,29.61,West,276,0.0,0.0,89,0.00,,,0.00,0,WeatherCatV1.02B3,2013-07-29 12:45:00,
2013-07-29 05:50:00,59.5,56.3,29.61,West,276,0.0,0.0,89,0.00,,,0.00,0,WeatherCatV1.02B3,2013-07-29 12:50:00,
2013-07-29 05:55:00,59.6,56.4,29.61,West,276,0.0,0.0,89,0.00,,,0.00,0,WeatherCatV1.02B3,2013-07-29 12:55:00,
2013-07-29 06:00:00,59.6,56.4,29.61,West,276,0.0,0.0,89,0.00,,,0.00,0,WeatherCatV1.02B3,2013-07-29 13:00:00,
2013-07-29 06:05:00,59.7,56.4,29.61,West,276,0.0,0.0,89,0.00,,,0.00,0,WeatherCatV1.02B3,2013-07-29 13:05:00,
2013-07-29 06:10:00,59.8,56.2,29.61,ENE,66,1.0,1.0,88,0.00,,,0.00,0,WeatherCatV1.02B3,2013-07-29 13:10:00,
2013-07-29 06:15:00,59.7,56.1,29.61,East,79,0.0,1.0,88,0.00,,,0.00,0,WeatherCatV1.02B3,2013-07-29 13:15:00,
2013-07-29 06:20:00,59.8,56.2,29.61,East,79,0.0,1.0,88,0.00,,,0.00,0,WeatherCatV1.02B3,2013-07-29 13:20:00,
2013-07-29 06:25:00,59.9,56.3,29.61,East,79,0.0,1.0,88,0.00,,,0.00,7,WeatherCatV1.02B3,2013-07-29 13:25:00,
2013-07-29 06:30:00,59.8,56.2,29.61,East,79,0.0,0.0,88,0.00,,,0.00,9,WeatherCatV1.02B3,2013-07-29 13:30:00,
2013-07-29 06:35:00,59.8,56.2,29.61,East,89,0.0,1.0,88,0.00,,,0.00,11,WeatherCatV1.02B3,2013-07-29 13:35:00,
2013-07-29 06:40:00,59.7,56.1,29.61,East,89,0.0,0.0,88,0.00,,,0.00,12,WeatherCatV1.02B3,2013-07-29 13:40:00,
2013-07-29 06:45:00,59.8,56.2,29.61,East,89,0.0,1.0,88,0.00,,,0.00,14,WeatherCatV1.02B3,2013-07-29 13:45:00,
2013-07-29 06:50:00,59.8,56.2,29.61,ESE,107,0.0,0.0,88,0.00,,,0.00,18,WeatherCatV1.02B3,2013-07-29 13:50:00,
2013-07-29 06:55:00,59.7,56.4,29.61,SW,232,0.0,1.0,89,0.00,,,0.00,21,WeatherCatV1.02B3,2013-07-29 13:55:00,
2013-07-29 07:00:00,59.8,56.5,29.61,SW,232,0.0,0.0,89,0.00,,,0.00,25,WeatherCatV1.02B3,2013-07-29 14:00:00,
2013-07-29 07:05:00,59.8,56.2,29.61,SW,232,0.0,0.0,88,0.00,,,0.00,26,WeatherCatV1.02B3,2013-07-29 14:05:00,
2013-07-29 07:10:00,59.8,56.5,29.61,SW,232,0.0,0.0,89,0.00,,,0.00,28,WeatherCatV1.02B3,2013-07-29 14:10:00,
2013-07-29 07:15:00,60.0,56.4,29.61,WSW,239,0.0,0.0,88,0.00,,,0.00,32,WeatherCatV1.02B3,2013-07-29 14:15:00,
2013-07-29 07:20:00,60.0,56.4,29.61,WSW,239,0.0,0.0,88,0.00,,,0.00,35,WeatherCatV1.02B3,2013-07-29 14:20:00,
2013-07-29 07:25:00,60.1,56.5,29.61,WSW,239,0.0,0.0,88,0.00,,,0.00,35,WeatherCatV1.02B3,2013-07-29 14:25:00,
2013-07-29 07:30:00,60.2,56.6,29.61,WSW,240,0.0,0.0,88,0.00,,,0.00,39,WeatherCatV1.02B3,2013-07-29 14:30:00,
2013-07-29 07:35:00,60.2,56.6,29.61,West,264,0.0,1.0,88,0.00,,,0.00,39,WeatherCatV1.02B3,2013-07-29 14:35:00,
2013-07-29 07:40:00,60.5,56.9,29.61,SSW,199,1.0,1.0,88,0.00,,,0.00,40,WeatherCatV1.02B3,2013-07-29 14:40:00,
2013-07-29 07:45:00,60.4,56.8,29.61,NW,315,1.0,1.0,88,0.00,,,0.00,42,WeatherCatV1.02B3,2013-07-29 14:45:00,
2013-07-29 07:50:00,60.3,56.7,29.61,WSW,237,0.0,0.0,88,0.00,,,0.00,49,WeatherCatV1.02B3,2013-07-29 14:50:00,
2013-07-29 07:55:00,60.3,56.7,29.61,WSW,243,0.0,1.0,88,0.00,,,0.00,56,WeatherCatV1.02B3,2013-07-29 14:55:00,
2013-07-29 08:00:00,60.3,56.7,29.61,WSW,243,0.0,1.0,88,0.00,,,0.00,58,WeatherCatV1.02B3,2013-07-29 15:00:00,
2013-07-29 08:05:00,60.3,56.7,29.61,WSW,243,0.0,1.0,88,0.00,,,0.00,60,WeatherCatV1.02B3,2013-07-29 15:05:00,
2013-07-29 08:10:00,60.3,56.7,29.61,WSW,243,0.0,0.0,88,0.00,,,0.00,65,WeatherCatV1.02B3,2013-07-29 15:10:00,
2013-07-29 08:15:00,60.4,56.8,29.61,WSW,243,0.0,0.0,88,0.00,,,0.00,76,WeatherCatV1.02B3,2013-07-29 15:15:00,
2013-07-29 08:20:00,60.7,57.1,29.61,WSW,243,0.0,0.0,88,0.00,,,0.00,88,WeatherCatV1.02B3,2013-07-29 15:20:00,
2013-07-29 08:25:00,61.2,57.0,29.61,WSW,243,0.0,1.0,86,0.00,,,0.00,104,WeatherCatV1.02B3,2013-07-29 15:25:00,
2013-07-29 08:30:00,61.6,57.0,29.61,North,5,0.0,0.0,85,0.00,,,0.00,104,WeatherCatV1.02B3,2013-07-29 15:30:00,
2013-07-29 08:35:00,61.4,56.8,29.61,West,280,0.0,2.0,85,0.00,,,0.00,111,WeatherCatV1.02B3,2013-07-29 15:35:00,
2013-07-29 08:40:00,61.5,56.9,29.61,West,269,1.0,3.0,85,0.00,,,0.00,118,WeatherCatV1.02B3,2013-07-29 15:40:00,
2013-07-29 08:45:00,61.9,57.3,29.61,NNW,338,1.0,1.0,85,0.00,,,0.00,130,WeatherCatV1.02B3,2013-07-29 15:45:00,
2013-07-29 08:50:00,61.9,57.0,29.61,NNW,334,0.0,1.0,84,0.00,,,0.00,141,WeatherCatV1.02B3,2013-07-29 15:50:00,
2013-07-29 08:55:00,61.8,56.9,29.61,SSE,161,0.0,3.0,84,0.00,,,0.00,163,WeatherCatV1.02B3,2013-07-29 15:55:00,
2013-07-29 09:00:00,61.8,56.9,29.61,WSW,256,2.0,4.0,84,0.00,,,0.00,214,WeatherCatV1.02B3,2013-07-29 16:00:00,
2013-07-29 09:05:00,62.2,57.3,29.61,West,259,1.0,4.0,84,0.00,,,0.00,246,WeatherCatV1.02B3,2013-07-29 16:05:00,
2013-07-29 09:10:00,63.0,57.8,29.61,WSW,253,3.0,3.0,83,0.00,,,0.00,260,WeatherCatV1.02B3,2013-07-29 16:10:00,
2013-07-29 09:15:00,62.8,57.2,29.61,NNW,337,0.0,2.0,82,0.00,,,0.00,302,WeatherCatV1.02B3,2013-07-29 16:15:00,
2013-07-29 09:20:00,63.9,57.9,29.61,South,180,0.0,1.0,81,0.00,,,0.00,492,WeatherCatV1.02B3,2013-07-29 16:20:00,
2013-07-29 09:25:00,65.2,58.9,29.61,SE,141,1.0,2.0,80,0.00,,,0.00,450,WeatherCatV1.02B3,2013-07-29 16:25:00,
2013-07-29 09:30:00,66.5,59.4,29.61,ENE,77,0.0,2.0,78,0.00,,,0.00,735,WeatherCatV1.02B3,2013-07-29 16:30:00,
2013-07-29 09:35:00,67.7,59.1,29.61,WNW,286,2.0,3.0,74,0.00,,,0.00,628,WeatherCatV1.02B3,2013-07-29 16:35:00,
2013-07-29 09:40:00,67.3,58.7,29.61,NW,309,1.0,3.0,74,0.00,,,0.00,613,WeatherCatV1.02B3,2013-07-29 16:40:00,
2013-07-29 09:45:00,67.0,58.0,29.61,WNW,286,4.0,4.0,73,0.00,,,0.00,631,WeatherCatV1.02B3,2013-07-29 16:45:00,
2013-07-29 09:50:00,66.9,58.3,29.61,ESE,117,0.0,3.0,74,0.00,,,0.00,638,WeatherCatV1.02B3,2013-07-29 16:50:00,
2013-07-29 09:56:00,67.7,58.7,29.61,WSW,254,1.0,4.0,73,0.00,,,0.00,656,WeatherCatV1.02B3,2013-07-29 16:56:00,
2013-07-29 10:01:00,67.6,58.6,29.61,NNE,24,1.0,2.0,73,0.00,,,0.00,670,WeatherCatV1.02B3,2013-07-29 17:01:00,
2013-07-29 10:06:00,67.9,59.3,29.61,East,98,1.0,7.0,74,0.00,,,0.00,679,WeatherCatV1.02B3,2013-07-29 17:06:00,
2013-07-29 10:11:00,68.2,59.2,29.61,East,86,2.0,3.0,73,0.00,,,0.00,696,WeatherCatV1.02B3,2013-07-29 17:11:00,
2013-07-29 10:16:00,68.9,58.7,29.61,SW,236,3.0,3.0,70,0.00,,,0.00,708,WeatherCatV1.02B3,2013-07-29 17:16:00,
2013-07-29 10:21:00,69.7,59.9,29.61,NNW,329,0.0,3.0,71,0.00,,,0.00,721,WeatherCatV1.02B3,2013-07-29 17:21:00,
2013-07-29 10:26:00,69.2,58.6,29.61,ENE,71,2.0,5.0,69,0.00,,,0.00,729,WeatherCatV1.02B3,2013-07-29 17:26:00,
2013-07-29 10:31:00,69.8,59.2,29.61,ENE,69,2.0,3.0,69,0.00,,,0.00,744,WeatherCatV1.02B3,2013-07-29 17:31:00,
2013-07-29 10:36:00,71.2,60.1,29.61,NE,37,0.0,1.0,68,0.00,,,0.00,756,WeatherCatV1.02B3,2013-07-29 17:36:00,
2013-07-29 10:41:00,72.1,60.1,29.61,West,270,3.0,6.0,66,0.00,,,0.00,768,WeatherCatV1.02B3,2013-07-29 17:41:00,
2013-07-29 10:46:00,71.6,59.2,29.61,WNW,295,1.0,4.0,65,0.00,,,0.00,779,WeatherCatV1.02B3,2013-07-29 17:46:00,
2013-07-29 10:51:00,72.1,60.1,29.61,SE,146,2.0,2.0,66,0.00,,,0.00,788,WeatherCatV1.02B3,2013-07-29 17:51:00,
2013-07-29 10:56:00,72.2,58.9,29.61,NW,325,3.0,4.0,63,0.00,,,0.00,800,WeatherCatV1.02B3,2013-07-29 17:56:00,
2013-07-29 11:01:00,71.7,59.3,29.61,WNW,285,1.0,4.0,65,0.00,,,0.00,809,WeatherCatV1.02B3,2013-07-29 18:01:00,
2013-07-29 11:06:00,72.9,60.0,29.61,ESE,106,2.0,4.0,64,0.00,,,0.00,817,WeatherCatV1.02B3,2013-07-29 18:06:00,
2013-07-29 11:11:00,73.3,60.4,29.61,NE,44,0.0,5.0,64,0.00,,,0.00,828,WeatherCatV1.02B3,2013-07-29 18:11:00,
2013-07-29 11:16:00,72.9,59.5,29.61,SW,223,1.0,5.0,63,0.00,,,0.00,838,WeatherCatV1.02B3,2013-07-29 18:16:00,
2013-07-29 11:21:00,73.1,60.2,29.61,NNW,328,1.0,4.0,64,0.00,,,0.00,846,WeatherCatV1.02B3,2013-07-29 18:21:00,
2013-07-29 11:26:00,75.3,60.0,29.61,North,355,0.0,4.0,59,0.00,,,0.00,854,WeatherCatV1.02B3,2013-07-29 18:26:00,
2013-07-29 11:31:00,74.2,59.4,29.61,NNW,337,1.0,3.0,60,0.00,,,0.00,863,WeatherCatV1.02B3,2013-07-29 18:31:00,
2013-07-29 11:36:00,74.1,59.8,29.61,South,169,1.0,3.0,61,0.00,,,0.00,868,WeatherCatV1.02B3,2013-07-29 18:36:00,
2013-07-29 11:41:00,74.4,60.1,29.61,East,81,3.0,3.0,61,0.00,,,0.00,879,WeatherCatV1.02B3,2013-07-29 18:41:00,
2013-07-29 11:46:00,74.8,60.0,29.61,NE,34,0.0,6.0,60,0.00,,,0.00,884,WeatherCatV1.02B3,2013-07-29 18:46:00,
2013-07-29 11:51:00,75.5,59.7,29.61,ENE,72,3.0,5.0,58,0.00,,,0.00,889,WeatherCatV1.02B3,2013-07-29 18:51:00,
2013-07-29 11:56:00,76.1,59.7,29.61,East,83,5.0,5.0,57,0.00,,,0.00,893,WeatherCatV1.02B3,2013-07-29 18:56:00,
2013-07-29 12:01:00,75.9,60.5,29.61,ENE,67,0.0,3.0,59,0.00,,,0.00,898,WeatherCatV1.02B3,2013-07-29 19:01:00,
2013-07-29 12:06:00,77.0,59.6,29.61,West,277,0.0,5.0,55,0.00,,,0.00,907,WeatherCatV1.02B3,2013-07-29 19:06:00,
2013-07-29 12:11:00,75.5,59.2,29.61,NE,44,2.0,6.0,57,0.00,,,0.00,905,WeatherCatV1.02B3,2013-07-29 19:11:00,
2013-07-29 12:16:00,75.6,59.8,29.61,NNW,346,1.0,5.0,58,0.00,,,0.00,912,WeatherCatV1.02B3,2013-07-29 19:16:00,
2013-07-29 12:21:00,76.4,59.5,29.61,West,259,0.0,5.0,56,0.00,,,0.00,919,WeatherCatV1.02B3,2013-07-29 19:21:00,
2013-07-29 12:26:00,76.0,59.6,29.61,ESE,106,4.0,5.0,57,0.00,,,0.00,921,WeatherCatV1.02B3,2013-07-29 19:26:00,
2013-07-29 12:31:00,75.3,59.5,29.61,WSW,241,3.0,9.0,58,0.00,,,0.00,923,WeatherCatV1.02B3,2013-07-29 19:31:00,
2013-07-29 12:36:00,75.6,59.3,29.61,SSW,213,0.0,3.0,57,0.00,,,0.00,923,WeatherCatV1.02B3,2013-07-29 19:36:00,
2013-07-29 12:41:00,76.8,59.9,29.61,NNE,17,3.0,7.0,56,0.00,,,0.00,926,WeatherCatV1.02B3,2013-07-29 19:41:00,
2013-07-29 12:46:00,77.4,60.5,29.61,WSW,237,3.0,3.0,56,0.00,,,0.00,930,WeatherCatV1.02B3,2013-07-29 19:46:00,
2013-07-29 12:51:00,77.6,60.1,29.61,West,273,1.0,5.0,55,0.00,,,0.00,932,WeatherCatV1.02B3,2013-07-29 19:51:00,
2013-07-29 12:56:00,78.4,60.4,29.61,West,267,6.0,6.0,54,0.00,,,0.00,928,WeatherCatV1.02B3,2013-07-29 19:56:00,
2013-07-29 13:01:00,77.8,60.3,29.61,West,270,7.0,7.0,55,0.00,,,0.00,932,WeatherCatV1.02B3,2013-07-29 20:01:00,
2013-07-29 13:06:00,77.0,60.1,29.61,SSW,192,4.0,8.0,56,0.00,,,0.00,935,WeatherCatV1.02B3,2013-07-29 20:06:00,
2013-07-29 13:11:00,76.8,59.9,29.61,WSW,247,1.0,5.0,56,0.00,,,0.00,926,WeatherCatV1.02B3,2013-07-29 20:11:00,
2013-07-29 13:16:00,77.0,59.6,29.61,SE,133,3.0,7.0,55,0.00,,,0.00,928,WeatherCatV1.02B3,2013-07-29 20:16:00,
2013-07-29 13:21:00,76.4,60.0,29.61,West,261,1.0,5.0,57,0.00,,,0.00,930,WeatherCatV1.02B3,2013-07-29 20:21:00,
2013-07-29 13:26:00,76.4,59.5,29.61,NW,317,7.0,13.0,56,0.00,,,0.00,926,WeatherCatV1.02B3,2013-07-29 20:26:00,
2013-07-29 13:31:00,75.9,59.6,29.61,WSW,254,6.0,11.0,57,0.00,,,0.00,925,WeatherCatV1.02B3,2013-07-29 20:31:00,
2013-07-29 13:36:00,76.6,59.7,29.61,NW,305,1.0,9.0,56,0.00,,,0.00,921,WeatherCatV1.02B3,2013-07-29 20:36:00,
2013-07-29 13:41:00,77.1,59.2,29.61,NW,306,5.0,10.0,54,0.00,,,0.00,919,WeatherCatV1.02B3,2013-07-29 20:41:00,
2013-07-29 13:46:00,77.3,59.9,29.61,NW,313,1.0,8.0,55,0.00,,,0.00,919,WeatherCatV1.02B3,2013-07-29 20:46:00,
2013-07-29 13:51:00,77.1,60.2,29.61,NW,312,5.0,9.0,56,0.00,,,0.00,911,WeatherCatV1.02B3,2013-07-29 20:51:00,
2013-07-29 13:56:00,77.1,59.7,29.61,NW,304,3.0,8.0,55,0.00,,,0.00,909,WeatherCatV1.02B3,2013-07-29 20:56:00,
2013-07-29 14:01:00,77.1,59.2,29.61,West,275,9.0,13.0,54,0.00,,,0.00,902,WeatherCatV1.02B3,2013-07-29 21:01:00,
2013-07-29 14:06:00,76.5,59.1,29.61,West,271,7.0,12.0,55,0.00,,,0.00,902,WeatherCatV1.02B3,2013-07-29 21:06:00,
2013-07-29 14:11:00,76.4,59.0,29.61,WSW,252,7.0,12.0,55,0.00,,,0.00,895,WeatherCatV1.02B3,2013-07-29 21:11:00,
2013-07-29 14:16:00,76.7,59.8,29.61,WSW,254,7.0,12.0,56,0.00,,,0.00,889,WeatherCatV1.02B3,2013-07-29 21:16:00,
2013-07-29 14:21:00,77.0,59.6,29.61,North,5,4.0,11.0,55,0.00,,,0.00,884,WeatherCatV1.02B3,2013-07-29 21:21:00,
2013-07-29 14:26:00,76.6,58.7,29.61,WNW,292,7.0,9.0,54,0.00,,,0.00,875,WeatherCatV1.02B3,2013-07-29 21:26:00,
2013-07-29 14:31:00,76.4,59.0,29.61,NW,315,4.0,6.0,55,0.00,,,0.00,865,WeatherCatV1.02B3,2013-07-29 21:31:00,
2013-07-29 14:36:00,76.4,59.0,29.61,West,275,7.0,11.0,55,0.00,,,0.00,860,WeatherCatV1.02B3,2013-07-29 21:36:00,
2013-07-29 14:41:00,76.6,59.2,29.61,West,275,4.0,7.0,55,0.00,,,0.00,854,WeatherCatV1.02B3,2013-07-29 21:41:00,
2013-07-29 14:46:00,76.8,58.9,29.61,WNW,289,9.0,11.0,54,0.00,,,0.00,846,WeatherCatV1.02B3,2013-07-29 21:46:00,
2013-07-29 14:51:00,76.2,59.8,29.61,WNW,298,6.0,9.0,57,0.00,,,0.00,837,WeatherCatV1.02B3,2013-07-29 21:51:00,
2013-07-29 14:56:00,75.8,59.5,29.61,NW,317,7.0,9.0,57,0.00,,,0.00,830,WeatherCatV1.02B3,2013-07-29 21:56:00,
2013-07-29 15:02:00,76.5,59.6,29.61,WNW,295,4.0,10.0,56,0.00,,,0.00,817,WeatherCatV1.02B3,2013-07-29 22:02:00,
2013-07-29 15:07:00,76.4,59.5,29.61,WSW,254,8.0,10.0,56,0.00,,,0.00,810,WeatherCatV1.02B3,2013-07-29 22:07:00,
2013-07-29 15:12:00,76.0,59.2,29.61,West,263,8.0,14.0,56,0.00,,,0.00,796,WeatherCatV1.02B3,2013-07-29 22:12:00,
2013-07-29 15:17:00,75.8,59.0,29.61,WNW,292,3.0,12.0,56,0.00,,,0.00,784,WeatherCatV1.02B3,2013-07-29 22:17:00,
2013-07-29 15:22:00,76.0,59.2,29.61,SW,229,5.0,10.0,56,0.00,,,0.00,779,WeatherCatV1.02B3,2013-07-29 22:22:00,
2013-07-29 15:27:00,76.6,59.2,29.61,West,270,6.0,8.0,55,0.00,,,0.00,768,WeatherCatV1.02B3,2013-07-29 22:27:00,
2013-07-29 15:32:00,76.1,58.7,29.61,NW,310,5.0,10.0,55,0.00,,,0.00,754,WeatherCatV1.02B3,2013-07-29 22:32:00,
2013-07-29 15:37:00,75.9,59.1,29.61,ENE,60,3.0,4.0,56,0.00,,,0.00,742,WeatherCatV1.02B3,2013-07-29 22:37:00,
2013-07-29 15:42:00,76.7,59.3,29.61,SW,219,2.0,8.0,55,0.00,,,0.00,733,WeatherCatV1.02B3,2013-07-29 22:42:00,
2013-07-29 15:47:00,76.2,58.8,29.61,WNW,300,1.0,7.0,55,0.00,,,0.00,719,WeatherCatV1.02B3,2013-07-29 22:47:00,
2013-07-29 15:52:00,76.7,59.3,29.61,WSW,258,4.0,9.0,55,0.00,,,0.00,707,WeatherCatV1.02B3,2013-07-29 22:52:00,
2013-07-29 15:57:00,76.7,59.3,29.61,WNW,298,5.0,6.0,55,0.00,,,0.00,693,WeatherCatV1.02B3,2013-07-29 22:57:00,
2013-07-29 16:02:00,77.0,59.1,29.61,West,273,7.0,7.0,54,0.00,,,0.00,682,WeatherCatV1.02B3,2013-07-29 23:02:00,
2013-07-29 16:07:00,77.0,59.1,29.61,West,265,8.0,8.0,54,0.00,,,0.00,668,WeatherCatV1.02B3,2013-07-29 23:07:00,
2013-07-29 16:12:00,77.1,59.7,29.61,WSW,240,1.0,7.0,55,0.00,,,0.00,654,WeatherCatV1.02B3,2013-07-29 23:12:00,
2013-07-29 16:17:00,77.3,58.8,29.61,West,267,3.0,7.0,53,0.00,,,0.00,642,WeatherCatV1.02B3,2013-07-29 23:17:00,
2013-07-29 16:22:00,77.7,59.2,29.61,WNW,285,3.0,7.0,53,0.00,,,0.00,628,WeatherCatV1.02B3,2013-07-29 23:22:00,
2013-07-29 16:27:00,77.2,59.2,29.61,SW,221,6.0,8.0,54,0.00,,,0.00,613,WeatherCatV1.02B3,2013-07-29 23:27:00,
2013-07-29 16:32:00,78.0,59.5,29.61,NNW,333,1.0,3.0,53,0.00,,,0.00,598,WeatherCatV1.02B3,2013-07-29 23:32:00,
2013-07-29 16:37:00,77.6,59.1,29.61,WNW,287,4.0,7.0,53,0.00,,,0.00,585,WeatherCatV1.02B3,2013-07-29 23:37:00,
2013-07-29 16:42:00,77.5,59.0,29.61,WNW,294,6.0,7.0,53,0.00,,,0.00,575,WeatherCatV1.02B3,2013-07-29 23:42:00,
2013-07-29 16:47:00,77.2,59.2,29.61,West,261,5.0,8.0,54,0.00,,,0.00,557,WeatherCatV1.02B3,2013-07-29 23:47:00,
2013-07-29 16:52:00,76.9,59.0,29.61,WNW,303,3.0,8.0,54,0.00,,,0.00,543,WeatherCatV1.02B3,2013-07-29 23:52:00,
2013-07-29 16:57:00,76.7,58.8,29.61,West,275,4.0,7.0,54,0.00,,,0.00,527,WeatherCatV1.02B3,2013-07-29 23:57:00,
2013-07-29 17:02:00,76.5,59.1,29.61,West,271,5.0,7.0,55,0.00,,,0.00,510,WeatherCatV1.02B3,2013-07-30 00:02:00,
2013-07-29 17:07:00,76.4,59.5,29.61,West,267,2.0,6.0,56,0.00,,,0.00,494,WeatherCatV1.02B3,2013-07-30 00:07:00,
2013-07-29 17:12:00,76.7,59.3,29.61,West,265,4.0,6.0,55,0.00,,,0.00,478,WeatherCatV1.02B3,2013-07-30 00:12:00,
2013-07-29 17:17:00,75.6,58.8,29.61,NW,306,3.0,8.0,56,0.00,,,0.00,466,WeatherCatV1.02B3,2013-07-30 00:17:00,
2013-07-29 17:22:00,75.8,59.5,29.61,West,281,5.0,9.0,57,0.00,,,0.00,448,WeatherCatV1.02B3,2013-07-30 00:22:00,
2013-07-29 17:27:00,75.6,58.8,29.61,WNW,283,3.0,8.0,56,0.00,,,0.00,432,WeatherCatV1.02B3,2013-07-30 00:27:00,
2013-07-29 17:32:00,75.1,59.3,29.61,NW,318,2.0,4.0,58,0.00,,,0.00,417,WeatherCatV1.02B3,2013-07-30 00:32:00,
2013-07-29 17:37:00,75.4,58.6,29.61,West,270,3.0,7.0,56,0.00,,,0.00,399,WeatherCatV1.02B3,2013-07-30 00:37:00,
2013-07-29 17:42:00,74.5,58.7,29.61,SE,134,2.0,6.0,58,0.00,,,0.00,383,WeatherCatV1.02B3,2013-07-30 00:42:00,
2013-07-29 17:47:00,75.0,59.2,29.61,SW,234,4.0,5.0,58,0.00,,,0.00,366,WeatherCatV1.02B3,2013-07-30 00:47:00,
2013-07-29 17:52:00,74.8,58.5,29.61,ENE,73,0.0,4.0,57,0.00,,,0.00,348,WeatherCatV1.02B3,2013-07-30 00:52:00,
2013-07-29 17:57:00,74.8,59.0,29.61,SE,137,1.0,3.0,58,0.00,,,0.00,332,WeatherCatV1.02B3,2013-07-30 00:57:00,
2013-07-29 18:02:00,74.1,58.4,29.61,West,265,4.0,7.0,58,0.00,,,0.00,318,WeatherCatV1.02B3,2013-07-30 01:02:00,
2013-07-29 18:07:00,73.4,58.7,29.61,West,263,4.0,7.0,60,0.00,,,0.00,301,WeatherCatV1.02B3,2013-07-30 01:07:00,
2013-07-29 18:12:00,73.5,58.7,29.61,SW,229,4.0,5.0,60,0.00,,,0.00,285,WeatherCatV1.02B3,2013-07-30 01:12:00,
2013-07-29 18:17:00,73.2,58.5,29.61,WSW,241,1.0,5.0,60,0.00,,,0.00,269,WeatherCatV1.02B3,2013-07-30 01:17:00,
2013-07-29 18:22:00,73.1,58.4,29.61,WNW,282,2.0,4.0,60,0.00,,,0.00,251,WeatherCatV1.02B3,2013-07-30 01:22:00,
2013-07-29 18:27:00,72.6,58.4,29.61,SW,228,2.0,4.0,61,0.00,,,0.00,236,WeatherCatV1.02B3,2013-07-30 01:27:00,
2013-07-29 18:32:00,71.8,58.1,29.61,West,273,3.0,4.0,62,0.00,,,0.00,218,WeatherCatV1.02B3,2013-07-30 01:32:00,
2013-07-29 18:37:00,71.8,58.1,29.61,West,265,3.0,3.0,62,0.00,,,0.00,200,WeatherCatV1.02B3,2013-07-30 01:37:00,
2013-07-29 18:42:00,71.5,58.2,29.61,West,263,6.0,6.0,63,0.00,,,0.00,181,WeatherCatV1.02B3,2013-07-30 01:42:00,
2013-07-29 18:47:00,70.6,57.8,29.61,West,271,3.0,6.0,64,0.00,,,0.00,162,WeatherCatV1.02B3,2013-07-30 01:47:00,
2013-07-29 18:52:00,70.1,57.8,29.61,West,273,4.0,4.0,65,0.00,,,0.00,142,WeatherCatV1.02B3,2013-07-30 01:52:00,
2013-07-29 18:57:00,69.6,57.7,29.61,West,261,3.0,4.0,66,0.00,,,0.00,120,WeatherCatV1.02B3,2013-07-30 01:57:00,
2013-07-29 19:02:00,69.2,57.8,29.61,West,261,2.0,2.0,67,0.00,,,0.00,60,WeatherCatV1.02B3,2013-07-30 02:02:00,
2013-07-29 19:07:00,68.7,57.3,29.61,WSW,250,1.0,3.0,67,0.00,,,0.00,25,WeatherCatV1.02B3,2013-07-30 02:07:00,
2013-07-29 19:12:00,68.1,57.5,29.61,West,269,2.0,3.0,69,0.00,,,0.00,21,WeatherCatV1.02B3,2013-07-30 02:12:00,
2013-07-29 19:17:00,67.4,57.3,29.61,West,269,3.0,5.0,70,0.00,,,0.00,19,WeatherCatV1.02B3,2013-07-30 02:17:00,
2013-07-29 19:22:00,67.0,57.3,29.61,WSW,250,3.0,5.0,71,0.00,,,0.00,19,WeatherCatV1.02B3,2013-07-30 02:22:00,
2013-07-29 19:27:00,66.7,57.4,29.61,West,269,3.0,4.0,72,0.00,,,0.00,18,WeatherCatV1.02B3,2013-07-30 02:27:00,
2013-07-29 19:32:00,66.5,57.2,29.61,West,270,3.0,4.0,72,0.00,,,0.00,16,WeatherCatV1.02B3,2013-07-30 02:32:00,
2013-07-29 19:37:00,66.1,57.2,29.61,WNW,292,2.0,3.0,73,0.00,,,0.00,14,WeatherCatV1.02B3,2013-07-30 02:37:00,
2013-07-29 19:42:00,65.6,57.1,29.61,West,277,2.0,3.0,74,0.00,,,0.00,12,WeatherCatV1.02B3,2013-07-30 02:42:00,
2013-07-29 19:47:00,65.4,57.3,29.61,WNW,287,1.0,3.0,75,0.00,,,0.00,9,WeatherCatV1.02B3,2013-07-30 02:47:00,
2013-07-29 19:52:00,65.1,57.0,29.61,West,259,0.0,4.0,75,0.00,,,0.00,7,WeatherCatV1.02B3,2013-07-30 02:52:00,
2013-07-29 19:57:00,64.8,57.0,29.61,West,271,0.0,2.0,76,0.00,,,0.00,5,WeatherCatV1.02B3,2013-07-30 02:57:00,
2013-07-29 20:02:00,64.3,56.6,29.61,West,278,1.0,2.0,76,0.00,,,0.00,0,WeatherCatV1.02B3,2013-07-30 03:02:00,
2013-07-29 20:07:00,64.1,56.7,29.61,WSW,251,0.0,4.0,77,0.00,,,0.00,0,WeatherCatV1.02B3,2013-07-30 03:07:00,
2013-07-29 20:12:00,64.1,56.7,29.61,West,263,0.0,3.0,77,0.00,,,0.00,0,WeatherCatV1.02B3,2013-07-30 03:12:00,
2013-07-29 20:17:00,63.7,56.7,29.61,West,259,0.0,2.0,78,0.00,,,0.00,0,WeatherCatV1.02B3,2013-07-30 03:17:00,
2013-07-29 20:23:00,63.2,56.2,29.61,West,259,0.0,0.0,78,0.00,,,0.00,0,WeatherCatV1.02B3,2013-07-30 03:23:00,
2013-07-29 20:39:00,61.9,55.7,29.61,West,259,0.0,0.0,80,0.00,,,0.00,0,WeatherCatV1.02B3,2013-07-30 03:39:00,
2013-07-29 20:44:00,61.5,55.6,29.61,West,259,0.0,1.0,81,0.00,,,0.00,0,WeatherCatV1.02B3,2013-07-30 03:44:00,
2013-07-29 20:49:00,61.3,55.4,29.61,West,259,0.0,1.0,81,0.00,,,0.00,0,WeatherCatV1.02B3,2013-07-30 03:49:00,
2013-07-29 20:54:00,60.9,55.4,29.61,West,259,0.0,0.0,82,0.00,,,0.00,0,WeatherCatV1.02B3,2013-07-30 03:54:00,
2013-07-29 20:59:00,61.1,55.6,29.61,West,259,0.0,0.0,82,0.00,,,0.00,0,WeatherCatV1.02B3,2013-07-30 03:59:00,
2013-07-29 21:01:00,61.1,55.6,29.61,West,259,0.0,0.0,82,0.00,,,0.00,0,WeatherCatV1.02B3,2013-07-30 04:01:00,
2013-07-29 21:06:00,60.8,55.3,29.61,West,259,0.0,0.0,82,0.00,,,0.00,0,WeatherCatV1.02B3,2013-07-30 04:06:00,
2013-07-29 21:11:00,60.6,55.4,29.61,West,259,0.0,0.0,83,0.00,,,0.00,0,WeatherCatV1.02B3,2013-07-30 04:11:00,
2013-07-29 21:16:00,60.2,54.7,29.61,West,259,0.0,0.0,82,0.00,,,0.00,0,WeatherCatV1.02B3,2013-07-30 04:16:00,
2013-07-29 21:21:00,59.8,55.0,29.61,West,259,0.0,0.0,84,0.00,,,0.00,0,WeatherCatV1.02B3,2013-07-30 04:21:00,
2013-07-29 21:26:00,60.0,55.1,29.61,West,259,0.0,0.0,84,0.00,,,0.00,0,WeatherCatV1.02B3,2013-07-30 04:26:00,
2013-07-29 21:31:00,59.8,55.0,29.61,West,259,0.0,0.0,84,0.00,,,0.00,0,WeatherCatV1.02B3,2013-07-30 04:31:00,
2013-07-29 21:36:00,59.3,54.5,29.61,West,259,0.0,0.0,84,0.00,,,0.00,0,WeatherCatV1.02B3,2013-07-30 04:36:00,
2013-07-29 21:41:00,59.1,54.3,29.61,West,259,0.0,0.0,84,0.00,,,0.00,0,WeatherCatV1.02B3,2013-07-30 04:41:00,
2013-07-29 21:46:00,58.7,54.2,29.61,West,259,0.0,0.0,85,0.00,,,0.00,0,WeatherCatV1.02B3,2013-07-30 04:46:00,
2013-07-29 21:51:00,58.8,54.6,29.61,West,259,0.0,0.0,86,0.00,,,0.00,0,WeatherCatV1.02B3,2013-07-30 04:51:00,
2013-07-29 21:56:00,58.7,54.5,29.61,West,259,0.0,0.0,86,0.00,,,0.00,0,WeatherCatV1.02B3,2013-07-30 04:56:00,
2013-07-29 22:01:00,58.6,54.4,29.61,West,259,0.0,0.0,86,0.00,,,0.00,0,WeatherCatV1.02B3,2013-07-30 05:01:00,
2013-07-29 22:06:00,58.6,54.1,29.61,West,259,0.0,0.0,85,0.00,,,0.00,0,WeatherCatV1.02B3,2013-07-30 05:06:00,
2013-07-29 22:11:00,58.1,53.9,29.61,West,259,0.0,0.0,86,0.00,,,0.00,0,WeatherCatV1.02B3,2013-07-30 05:11:00,
2013-07-29 22:16:00,58.3,54.4,29.61,West,259,0.0,0.0,87,0.00,,,0.00,0,WeatherCatV1.02B3,2013-07-30 05:16:00,
2013-07-29 22:21:00,58.0,53.8,29.61,West,259,0.0,0.0,86,0.00,,,0.00,0,WeatherCatV1.02B3,2013-07-30 05:21:00,
2013-07-29 22:26:00,57.7,53.9,29.61,West,259,0.0,0.0,87,0.00,,,0.00,0,WeatherCatV1.02B3,2013-07-30 05:26:00,
2013-07-29 22:31:00,57.6,53.8,29.61,West,259,0.0,0.0,87,0.00,,,0.00,0,WeatherCatV1.02B3,2013-07-30 05:31:00,
2013-07-29 22:36:00,57.7,53.9,29.61,West,259,0.0,0.0,87,0.00,,,0.00,0,WeatherCatV1.02B3,2013-07-30 05:36:00,
2013-07-29 22:41:00,57.5,53.7,29.61,West,259,0.0,0.0,87,0.00,,,0.00,0,WeatherCatV1.02B3,2013-07-30 05:41:00,
2013-07-29 22:46:00,57.2,53.4,29.61,West,259,0.0,0.0,87,0.00,,,0.00,0,WeatherCatV1.02B3,2013-07-30 05:46:00,
2013-07-29 22:51:00,57.0,53.5,29.61,West,259,0.0,0.0,88,0.00,,,0.00,0,WeatherCatV1.02B3,2013-07-30 05:51:00,
2013-07-29 22:56:00,56.8,53.3,29.61,West,259,0.0,0.0,88,0.00,,,0.00,0,WeatherCatV1.02B3,2013-07-30 05:56:00,
2013-07-29 23:01:00,56.9,53.4,29.61,West,259,0.0,0.0,88,0.00,,,0.00,0,WeatherCatV1.02B3,2013-07-30 06:01:00,
2013-07-29 23:06:00,56.7,53.2,29.61,West,259,0.0,0.0,88,0.00,,,0.00,0,WeatherCatV1.02B3,2013-07-30 06:06:00,
2013-07-29 23:11:00,56.4,52.9,29.61,West,259,0.0,0.0,88,0.00,,,0.00,0,WeatherCatV1.02B3,2013-07-30 06:11:00,
2013-07-29 23:16:00,56.8,53.6,29.61,West,259,0.0,0.0,89,0.00,,,0.00,0,WeatherCatV1.02B3,2013-07-30 06:16:00,
2013-07-29 23:21:00,56.2,52.4,29.61,West,259,0.0,0.0,87,0.00,,,0.00,0,WeatherCatV1.02B3,2013-07-30 06:21:00,
2013-07-29 23:26:00,56.1,52.9,29.61,West,259,0.0,0.0,89,0.00,,,0.00,0,WeatherCatV1.02B3,2013-07-30 06:26:00,
2013-07-29 23:31:00,56.2,53.0,29.61,West,259,0.0,0.0,89,0.00,,,0.00,0,WeatherCatV1.02B3,2013-07-30 06:31:00,
2013-07-29 23:36:00,56.0,52.8,29.61,West,259,0.0,0.0,89,0.00,,,0.00,0,WeatherCatV1.02B3,2013-07-30 06:36:00,
2013-07-29 23:41:00,56.1,52.9,29.61,West,259,0.0,0.0,89,0.00,,,0.00,0,WeatherCatV1.02B3,2013-07-30 06:41:00,
2013-07-29 23:46:00,55.8,52.6,29.61,West,259,0.0,0.0,89,0.00,,,0.00,0,WeatherCatV1.02B3,2013-07-30 06:46:00,
2013-07-29 23:51:00,55.5,52.3,29.61,West,259,0.0,0.0,89,0.00,,,0.00,0,WeatherCatV1.02B3,2013-07-30 06:51:00,
2013-07-29 23:56:00,55.6,52.7,29.61,West,259,0.0,0.0,90,0.00,,,0.00,0,WeatherCatV1.02B3,2013-07-30 06:56:00,